Location: ??????
(36.0418°N, 43.6351°E)
Time: 16:24:44
(UTC+00:00)

USA 238 - Visible Passes

Search period start: 16 June 2021 00:00
Search period end: 26 June 2021 00:00
Orbit: 989 x 1223 km, 63.4° (Epoch: 13 June)

Date Brightness Start Highest point End Pass type
(mag) Time Alt. Az. Time Alt. Az. Time Alt. Az.
16 Jun 6.4 00:37:27 10° N 00:43:11 24° NE 00:49:06 10° E visible
16 Jun 5.4 18:08:38 10° WSW 18:14:25 33° NW 18:20:27 10° NNE visible
16 Jun 6.7 23:53:19 10° N 23:57:46 17° NE 00:02:20 10° ENE visible
17 Jun 4.6 17:23:04 10° SW 17:29:21 51° NW 17:35:56 10° NNE visible
17 Jun 6.8 19:19:38 10° NW 19:22:03 12° NNW 19:24:30 10° N visible
17 Jun 7.0 23:09:48 10° N 23:12:10 12° NNE 23:14:33 10° NE visible
18 Jun 5.2 00:58:05 10° NNW 01:05:04 45° NE 01:12:18 10° ESE visible
18 Jun 6.5 18:32:15 10° WNW 18:36:29 17° NW 18:40:51 10° N visible
19 Jun 5.9 00:13:38 10° NNW 00:19:57 30° NE 00:26:28 10° ESE visible
19 Jun 6.0 17:45:48 10° W 17:51:08 26° NW 17:56:41 10° N visible
19 Jun 6.4 23:29:22 10° N 23:34:39 21° NE 23:40:05 10° E visible
20 Jun 5.3 16:59:56 10° WSW 17:05:58 39° NW 17:12:16 10° NNE visible
20 Jun 6.7 22:45:24 10° N 22:49:09 14° NNE 22:52:59 10° ENE visible
21 Jun 4.6 00:34:26 10° NNW 00:41:41 58° NE 00:49:11 10° SE visible
21 Jun 6.7 18:10:07 10° WNW 18:13:24 14° NNW 18:16:46 10° N visible
21 Jun 5.4 23:49:54 10° NNW 23:56:39 38° NE 00:03:39 10° ESE visible
22 Jun 6.5 17:23:11 10° W 17:27:55 20° NW 17:32:49 10° N visible
22 Jun 5.9 23:05:30 10° N 23:11:27 26° NE 23:17:35 10° E visible
23 Jun 3.9 00:55:40 10° NW 01:03:02 73° WSW 01:10:39 10° SSE visible
23 Jun 6.4 22:21:19 10° N 22:26:04 18° NE 22:30:56 10° ENE visible
24 Jun 4.1 00:10:51 10° NNW 00:18:14 75° ENE 00:25:52 10° SE visible
24 Jun 6.9 17:48:34 10° NW 17:50:23 11° NNW 17:52:14 10° NNW visible
24 Jun 6.6 21:37:37 10° N 21:40:30 12° NNE 21:43:26 10° NE visible
24 Jun 4.8 23:26:12 10° NNW 23:33:18 49° NE 23:40:37 10° SE visible
25 Jun 4.5 01:17:32 10° NW 01:24:04 34° WSW 01:30:46 10° S visible
25 Jun 6.5 17:00:50 10° WNW 17:04:47 16° NW 17:08:51 10° N visible
25 Jun 5.5 22:41:43 10° NNW 22:48:12 33° NE 22:54:53 10° ESE visible
